Casa Grande, AZ

6:52 AM MST on November 12, 2019 (GMT -0700)
Casa Grande Municipal

Weather History for KCGZ - September, 2019

Change the Weather History Date:

Sunday, September 1, 2019

  Actual Average Record
Temperature  
Mean Temperature 91 °F -  
Max Temperature 105 °F 97 °F 107 °F (2011)
Min Temperature 77 °F 73 °F 69 °F (1999)
Cooling Degree Days 26    
Growing Degree Days 41 (Base 50)    
Moisture  
Dew Point 64 °F    
Average Humidity 43    
Maximum Humidity 78    
Minimum Humidity 24    
Precipitation  
Precipitation 0.01 in - - ()
Sea Level Pressure  
Sea Level Pressure 29.89 in    
Wind  
Wind Speed 9 mph ()    
Max Wind Speed 28 mph    
Max Gust Speed 33 mph    
Visibility 9.9 miles    
Events Rain , Thunderstorm    
Averages and records for this station are not official NWS values.
T = Trace of Precipitation, MM = Missing Value Source: Averaged Metar Reports

Daily Weather History Graph

Daily Weather History Graph

Search for Another Location

Airport or City:

Astronomy

Sep. 01, 2019 Rise Set
Actual Time 6:01 AM MST 6:52 PM MST
Civil Twilight 5:36 AM MST 7:17 PM MST
Nautical Twilight 5:06 AM MST 7:46 PM MST
Astronomical Twilight 4:35 AM MST 8:17 PM MST
Moon 8:29 AM MST (9/1) 8:50 PM MST (9/1)
Length of Visible Light 13h 40m
Length of Day
12h 50m
Waxing Crescent, 8% of the Moon is Illuminated
Sep 1
Waxing Crescent
Sep 5
First Quarter
Sep 13
Full
Sep 21
Last Quarter
Sep 28
New

Hourly Weather History & Observations

Time (MST) Temp. Heat Index Dew Point Humidity Pressure Visibility Wind Dir Wind Speed Gust Speed Precip Events Conditions
12:56 AM 90.0 °F 90.6 °F 63.0 °F 40% 29.83 in 10.0 mi SSW 8.1 mph - N/A   Clear
1:56 AM 89.1 °F 90.3 °F 64.0 °F 43% 29.84 in 10.0 mi South 10.4 mph - N/A   Clear
2:56 AM 88.0 °F 89.3 °F 64.0 °F 45% 29.86 in 10.0 mi South 8.1 mph - N/A   Scattered Clouds
3:09 AM 87.8 °F 89.4 °F 64.4 °F 46% 29.91 in 10.0 mi SSW 12.7 mph - N/A Thunderstorm Mostly Cloudy
3:21 AM 87.8 °F 89.4 °F 64.4 °F 46% 29.91 in 10.0 mi SSW 18.4 mph - N/A Thunderstorm Scattered Clouds
3:53 AM 84.2 °F 86.6 °F 66.2 °F 55% 29.90 in 10.0 mi SW 9.2 mph - N/A   Clear
3:56 AM 84.9 °F 87.6 °F 66.9 °F 55% 29.85 in 10.0 mi SW 9.2 mph - N/A   Clear
4:56 AM 84.9 °F 87.1 °F 66.0 °F 53% 29.88 in 10.0 mi SSW 4.6 mph - N/A   Clear
5:56 AM 84.0 °F 86.3 °F 66.0 °F 55% 29.90 in 10.0 mi South 4.6 mph - N/A   Clear
6:56 AM 86.0 °F 89.4 °F 68.0 °F 55% 29.92 in 10.0 mi SSE 5.8 mph - N/A   Clear
7:56 AM 88.0 °F 91.4 °F 68.0 °F 51% 29.93 in 10.0 mi South 6.9 mph - N/A   Clear
8:56 AM 90.0 °F 92.8 °F 66.9 °F 46% 29.94 in 10.0 mi Variable 3.5 mph - N/A   Clear
9:56 AM 93.0 °F 96.4 °F 66.9 °F 42% 29.93 in 10.0 mi North 4.6 mph - N/A   Clear
10:56 AM 95.0 °F 97.9 °F 66.0 °F 38% 29.91 in 10.0 mi Calm Calm - N/A   Clear
11:56 AM 98.1 °F 100.7 °F 64.0 °F 33% 29.90 in 10.0 mi Calm Calm - N/A   Clear
12:56 PM 100.9 °F 103.3 °F 63.0 °F 29% 29.88 in 10.0 mi NE 4.6 mph - N/A   Clear
1:56 PM 102.9 °F 106.1 °F 64.0 °F 28% 29.83 in 10.0 mi SSW 6.9 mph - N/A   Clear
2:56 PM 105.1 °F 108.5 °F 64.0 °F 26% 29.80 in 10.0 mi West 8.1 mph - N/A   Clear
3:56 PM 104.0 °F 105.3 °F 61.0 °F 24% 29.77 in 10.0 mi NW 4.6 mph - N/A   Clear
4:56 PM 102.9 °F 104.2 °F 61.0 °F 25% 29.79 in 10.0 mi NW 4.6 mph - N/A   Clear
5:56 PM 96.1 °F 95.2 °F 57.9 °F 28% 29.85 in 8.0 mi NE 23.0 mph 31.1 mph N/A   Clear
6:08 PM 93.2 °F 92.6 °F 59.0 °F 32% 29.89 in 10.0 mi NE 16.1 mph 29.9 mph N/A   Clear
6:52 PM 95.0 °F 93.0 °F 55.4 °F 26% 29.90 in 10.0 mi NE 11.5 mph 19.6 mph N/A Thunderstorm Clear
6:56 PM 95.0 °F 92.7 °F 54.0 °F 25% 29.85 in 10.0 mi NE 15.0 mph 19.6 mph N/A   Clear
7:19 PM 93.2 °F 90.8 °F 53.6 °F 26% 29.91 in 10.0 mi East 9.2 mph - 0.00 in Rain , Thunderstorm Light Rain
7:41 PM 91.4 °F 90.7 °F 59.0 °F 34% 29.92 in 10.0 mi SSW 13.8 mph - 0.00 in   Scattered Clouds
7:53 PM 89.6 °F 90.1 °F 62.6 °F 40% 29.93 in 10.0 mi SW 13.8 mph - 0.00 in   Partly Cloudy
7:56 PM 89.1 °F 89.3 °F 62.1 °F 40% 29.87 in 10.0 mi SW 12.7 mph - 0.00 in   Partly Cloudy
8:16 PM 87.8 °F 89.4 °F 64.4 °F 46% 29.97 in 10.0 mi South 9.2 mph - N/A Thunderstorm Scattered Clouds
8:31 PM 80.6 °F 82.7 °F 66.2 °F 61% 29.98 in 10.0 mi SSE 18.4 mph 23.0 mph 0.00 in Rain Light Rain
8:46 PM 77.0 °F - 69.8 °F 78% 30.00 in 10.0 mi SE 16.1 mph - 0.00 in Rain , Thunderstorm Light Thunderstorms and Rain
8:56 PM 79.0 °F - 69.1 °F 72% 29.94 in 10.0 mi SSE 21.9 mph 27.6 mph 0.00 in Rain , Thunderstorm Light Rain
9:08 PM 82.4 °F 84.6 °F 66.2 °F 58% 29.97 in 10.0 mi SSE 25.3 mph 33.4 mph 0.00 in Rain Light Rain
9:56 PM 79.0 °F - 66.9 °F 66% 29.92 in 10.0 mi South 27.6 mph 33.4 mph 0.00 in Rain Light Rain
10:56 PM 86.0 °F 85.4 °F 59.0 °F 40% 29.88 in 10.0 mi WSW 20.7 mph 31.1 mph 0.01 in Rain Light Rain
11:56 PM 82.0 °F 84.1 °F 66.0 °F 58% 29.91 in 10.0 mi NE 17.3 mph - 0.00 in   Clear